Location: Most
(50.5133°N, 13.6207°E)
Time: 12:51:55
(UTC+02:00)

X-37B - Visible Passes

Search period start: 18 September 2021 00:00
Search period end: 28 September 2021 00:00
Orbit: 381 x 393 km, 45.0° (Epoch: 29 August)

Date Brightness Start Highest point End Pass type
(mag) Time Alt. Az. Time Alt. Az. Time Alt. Az.
23 Sep 2.8 06:00:15 10° SSW 06:02:33 18° SSE 06:04:51 10° ESE visible
24 Sep 3.0 05:03:52 13° SSE 05:04:24 14° SSE 05:06:04 10° ESE visible
25 Sep 2.3 05:40:29 15° SSW 05:42:12 23° SSE 05:44:49 10° ESE visible
26 Sep 2.9 04:44:46 17° SE 04:44:46 17° SE 04:46:18 10° ESE visible
26 Sep 1.9 06:17:18 10° WSW 06:20:08 30° S 06:22:58 10° ESE visible
27 Sep 1.9 05:21:20 26° SSW 05:21:53 28° S 05:24:39 10° ESE visible
